Temperature
18 18 18 18 18 18 18 17 17 17 16 15 15 14 15 15 14 14 14 14 13 13 12 12 11 11 11 11 10 10 10 10 9 9 9 9 9 10 10 10 10 10 10
18 18 18 17 18 18 18 18 17 17 16 16 16 16 16 15 15 15 14 14 14 13 13 12 12 12 11 11 10 10 10 9 9 9 9 9 10 10 10 10 10 10 10
18 17 17 17 17 17 17 17 17 17 17 17 16 15 14 14 14 14 14 14 14 14 13 13 12 12 12 11 11 10 10 10 10 9 9 10 11 10 10 10 10 10 10
17 17 17 17 17 17 17 17 17 17 17 16 15 15 15 15 15 15 15 15 15 14 14 13 13 12 12 12 11 11 11 10 10 10 9 9 10 10 10 10 10 10 10
16 16 17 17 17 17 17 17 17 17 16 16 15 15 15 15 15 15 15 14 14 14 14 14 13 13 12 12 11 11 11 10 10 10 10 9 9 9 9 9 9 9 10
16 16 16 16 16 17 17 17 17 17 16 16 15 15 15 15 14 14 14 14 14 14 14 14 14 13 13 12 12 11 11 11 10 10 10 10 9 9 9 9 9 9 9
16 16 16 16 16 16 17 16 16 17 16 16 16 16 16 15 15 15 14 14 14 14 14 14 14 13 13 13 12 12 11 11 10 10 10 10 10 9 9 9 9 8 8
15 15 15 15 16 16 16 16 16 16 16 16 16 16 16 15 15 15 14 14 14 14 15 15 14 14 13 13 12 12 11 11 11 10 10 10 10 9 9 9 8 8 8
14 15 15 15 15 15 15 15 16 16 16 16 16 15 15 15 15 15 14 14 14 14 14 14 14 13 13 12 12 11 11 11 11 10 10 10 10 9 9 9 8 8 7
13 13 14 14 14 15 15 15 15 15 15 15 15 15 15 15 15 15 14 14 14 14 13 13 13 13 13 12 12 11 11 11 11 10 10 10 9 9 9 9 8 8 7
12 13 13 13 14 14 14 14 15 15 15 15 15 15 15 15 14 14 14 14 14 13 13 13 13 13 13 12 12 11 11 11 10 10 10 10 9 9 9 8 8 7 7
12 12 12 12 13 13 13 13 14 14 14 14 14 14 14 14 14 14 14 14 13 13 13 13 12 12 12 12 12 11 11 11 10 10 10 10 9 9 8 8 8 7 7
11 11 11 11 12 12 12 13 13 13 13 13 13 13 13 14 14 14 14 13 13 13 13 12 12 12 12 12 12 11 11 11 11 10 10 10 9 9 8 8 8 7 7
11 11 11 11 11 11 12 12 12 12 13 13 13 13 13 13 13 13 13 13 13 12 12 12 12 12 12 11 11 11 11 10 10 10 10 9 9 8 8 8 7 7 6
10 10 10 10 10 11 11 11 12 12 12 12 12 12 12 13 13 13 13 12 12 12 12 12 11 11 11 11 11 11 10 10 10 9 9 9 9 8 8 8 7 7 6
10 10 10 10 10 10 11 11 11 11 11 12 12 12 12 12 12 12 12 12 12 12 11 11 11 11 11 11 10 10 10 10 9 9 9 8 8 8 7 7 7 6 6
9 9 9 9 9 10 10 10 10 11 11 11 11 11 11 11 11 11 11 11 11 11 11 11 10 10 10 10 10 10 9 9 9 9 8 8 7 7 7 6 6 6 5
9 8 8 9 9 9 9 9 10 10 10 10 10 11 10 10 11 11 10 10 10 10 10 10 10 10 10 10 9 9 8 8 8 8 7 7 7 6 6 6 5 5 5
8 8 8 8 8 8 8 9 9 9 9 9 10 10 10 10 10 10 10 10 10 10 10 9 9 9 9 9 9 8 8 7 7 7 7 6 6 6 6 5 5 5 4
7 7 7 7 7 7 8 8 8 8 9 9 9 9 9 9 9 9 9 9 9 9 9 8 8 8 8 8 8 8 7 7 6 6 6 6 5 5 5 5 5 4 4
6 6 6 6 6 7 7 7 7 7 8 8 8 8 8 8 8 8 8 8 8 8 8 8 8 8 7 7 7 7 7 6 6 6 5 5 5 5 4 4 4 4 3
5 5 5 6 6 6 6 6 7 7 7 7 7 7 7 7 7 7 7 7 7 7 7 7 7 7 7 7 7 6 6 6 5 5 5 5 4 4 4 3 3 3 2
4 5 5 5 5 5 5 5 6 6 6 6 6 6 6 6 6 6 6 6 6 6 6 6 6 6 6 6 6 6 5 5 5 4 4 4 4 3 3 3 2 2 2
4 4 4 4 4 5 5 4 5 5 5 5 5 5 5 5 6 6 6 5 5 5 5 5 5 5 5 5 5 5 4 4 4 3 3 3 3 2 2 2 1 1 1
3 3 3 3 3 4 4 4 4 4 4 4 4 4 4 4 4 5 5 4 5 5 5 5 5 5 5 5 5 4 4 4 3 3 2 2 1 1 1 1 0 0 -0
2 2 2 3 3 3 3 3 3 3 3 3 3 3 3 3 3 3 3 3 4 4 4 4 4 4 4 4 4 4 3 3 3 2 2 1 1 1 0 0 -0 -1 -1
Wind_Speed
17 15 14 15 15 15 16 18 19 20 18 15 16 15 16 15 15 15 18 20 20 20 18 13 14 14 13 13 13 11 11 10 7 6 7 8 10 10 9 8 8 9 10
15 14 13 13 14 15 16 18 19 19 19 17 17 16 16 15 15 14 17 20 20 20 17 18 15 15 13 15 15 13 10 9 9 7 6 6 7 8 9 8 8 9 8
16 14 13 13 13 14 16 16 19 20 21 20 15 13 13 12 13 16 16 19 21 21 20 20 17 16 15 14 16 15 15 11 11 10 8 5 6 4 6 8 8 8 8
14 13 12 12 13 14 13 16 18 19 20 20 18 19 17 17 19 17 16 18 21 22 21 21 20 18 16 16 16 16 14 14 11 10 11 10 6 6 4 5 7 8 9
12 13 12 12 12 12 12 14 16 18 19 20 21 21 20 19 16 16 18 18 19 21 21 21 20 19 17 18 18 17 17 14 14 11 9 10 9 10 8 7 6 7 8
11 11 11 10 10 9 9 11 14 16 18 20 21 22 24 22 20 19 18 17 15 17 22 21 20 20 18 18 18 18 19 16 16 13 11 9 8 9 10 11 10 8 7
9 9 9 9 8 8 9 10 13 14 16 19 20 21 24 24 23 21 19 18 15 16 20 20 20 19 19 19 18 18 18 19 18 16 13 12 12 9 10 10 10 9 7
8 8 8 8 8 8 9 10 12 13 15 17 19 19 22 19 18 20 18 18 16 17 19 21 20 21 20 19 18 16 17 16 18 17 16 12 12 11 10 10 9 9 8
9 9 8 7 7 8 9 9 11 12 13 15 17 18 19 20 20 19 19 16 16 15 18 19 20 20 20 20 18 16 18 17 17 16 17 14 12 11 11 10 10 9 9
9 9 8 7 6 7 7 8 9 11 12 13 14 13 17 18 19 18 19 18 18 17 17 18 19 19 19 19 18 16 17 17 16 14 16 15 12 11 10 10 10 10 10
10 10 9 8 6 6 6 5 6 8 10 11 12 13 14 16 16 17 18 17 17 17 18 18 18 19 19 19 18 18 17 18 17 16 16 16 14 11 10 10 10 10 10
10 10 9 8 7 7 6 6 5 6 8 9 10 12 13 13 15 16 17 17 17 17 17 17 18 18 18 18 18 18 18 18 18 17 16 16 13 15 12 10 11 11 11
12 10 9 9 8 8 7 7 6 6 6 6 8 9 11 12 14 15 15 16 16 16 17 17 17 17 17 17 17 17 17 17 17 17 17 16 16 16 13 12 12 10 9
13 11 10 10 9 8 8 8 8 6 6 6 7 8 10 11 12 12 14 15 15 16 16 16 16 16 16 16 16 16 16 16 16 15 15 16 16 16 15 13 13 10 10
13 11 11 11 10 9 8 8 8 7 6 6 7 8 9 9 10 11 12 13 14 15 15 15 15 15 14 14 15 15 15 15 15 14 14 14 15 15 13 10 11 11 9
12 12 11 12 11 10 9 8 8 7 6 7 7 7 7 8 9 10 10 11 12 13 13 14 14 15 12 14 16 15 14 14 14 14 13 12 13 14 14 14 14 13 12
12 12 12 11 11 11 10 9 9 8 6 7 7 7 7 8 8 8 9 10 11 12 13 13 13 14 14 14 16 16 14 13 13 13 11 9 10 13 12 13 13 12 12
12 12 11 11 11 11 10 9 8 7 6 6 7 6 6 7 7 8 9 9 9 9 10 11 12 12 12 13 15 16 14 12 12 12 12 11 11 11 11 10 9 8 9
11 11 11 12 11 10 10 9 8 7 7 7 7 6 6 6 7 8 8 8 8 8 9 9 10 11 10 12 14 14 11 10 11 10 10 11 11 12 13 11 9 8 6
10 11 11 11 10 9 8 8 8 7 7 7 7 6 6 6 7 7 7 6 7 7 7 7 9 10 9 10 13 14 9 9 8 8 8 10 10 12 13 11 10 9 7
12 11 10 10 9 9 7 7 7 8 8 7 6 6 6 6 6 5 5 5 5 6 6 7 7 8 9 10 13 13 9 8 8 7 7 7 12 13 13 11 9 10 8
12 11 10 9 9 8 7 7 7 8 7 6 6 5 5 4 4 4 4 5 5 5 6 6 6 6 6 8 11 13 11 9 8 7 6 7 11 12 11 9 8 10 9
11 9 8 9 8 7 6 7 8 7 6 6 6 5 5 4 4 4 4 4 5 5 5 5 6 5 5 6 9 12 12 10 7 6 8 9 11 10 8 9 10 9 7
9 8 8 8 8 8 7 6 7 6 6 6 6 5 5 4 3 3 3 4 4 5 5 5 5 5 5 5 6 7 8 8 7 6 7 9 10 7 6 7 7 6 6
8 7 8 8 8 8 7 6 6 6 6 6 5 5 5 4 4 3 3 4 4 5 5 5 5 6 6 7 8 8 7 7 7 7 5 5 6 5 5 5 5 5 5
8 8 8 8 8 8 7 7 6 5 5 5 5 4 4 4 3 3 3 2 3 3 4 4 5 4 5 6 8 9 9 10 12 8 6 6 6 6 6 6 6 5 5
Wind_Direction
260 255 247 237 230 224 219 215 211 209 206 203 204 207 210 209 209 210 210 208 208 206 207 209 210 208 211 212 213 214 217 219 217 225 241 244 240 241 240 237 237 234 231
265 258 247 237 229 224 219 216 213 209 207 206 205 208 210 209 210 210 212 211 210 209 207 210 210 209 213 215 215 212 214 215 207 216 233 247 235 227 230 230 232 236 228
264 261 251 241 231 227 222 218 214 212 209 208 207 208 211 210 210 212 212 212 211 211 209 211 212 211 212 215 214 210 212 214 209 214 218 230 238 233 215 224 228 229 228
260 259 256 248 238 232 226 222 219 215 211 207 207 206 208 209 211 210 211 211 211 211 211 212 213 213 213 215 215 213 214 215 214 212 225 236 252 244 239 219 224 228 233
260 258 258 252 245 238 229 223 221 218 213 209 209 211 215 216 215 212 212 212 211 213 212 212 212 214 214 216 215 212 213 214 217 211 209 223 234 241 247 252 237 231 233
264 262 261 258 252 244 233 226 223 221 216 213 213 215 216 216 216 213 212 212 212 212 213 213 213 214 214 215 215 214 213 214 218 217 213 211 214 219 227 241 249 249 239
274 271 270 263 258 249 238 230 226 224 220 217 217 219 220 218 218 217 215 213 212 211 212 211 213 214 215 214 214 214 215 215 217 218 218 220 225 225 226 237 248 253 248
291 287 285 278 268 257 245 236 231 229 224 221 222 223 222 220 222 221 218 216 216 215 212 210 213 215 214 213 213 214 216 216 218 220 221 222 224 223 223 230 239 250 250
304 300 296 290 286 276 259 244 238 235 230 227 225 225 224 221 222 222 221 221 220 217 213 211 212 215 214 212 211 214 215 215 217 219 220 222 223 222 223 226 229 237 253
324 327 317 310 307 302 287 261 247 243 238 232 229 229 228 226 224 222 221 220 219 217 214 212 212 213 213 212 211 214 216 214 216 215 217 220 222 222 222 222 224 228 239
328 328 327 326 327 324 315 298 271 255 247 239 235 233 233 230 227 224 224 222 220 217 215 213 211 212 212 211 212 213 212 214 215 214 217 219 218 219 219 218 220 224 229
326 324 325 326 328 324 316 308 298 277 259 247 240 238 236 233 230 228 225 222 221 219 217 215 213 213 212 211 211 212 212 213 215 215 216 219 217 219 219 217 219 223 224
320 321 322 325 325 323 316 307 301 293 281 263 248 244 240 236 234 233 229 223 220 219 216 215 214 214 212 212 212 213 214 215 217 217 217 219 217 219 219 218 220 222 222
311 314 316 316 319 318 317 310 303 296 285 273 259 249 244 241 239 237 232 226 220 218 216 214 215 213 212 211 211 212 214 217 219 220 220 220 219 219 218 217 218 217 216
306 311 314 314 315 313 313 312 306 299 289 275 265 257 253 249 244 238 233 227 220 217 215 214 213 212 211 211 210 210 213 216 219 221 221 222 219 218 216 213 213 209 213
302 305 309 311 311 309 308 307 304 299 289 278 271 271 264 253 244 240 235 228 224 217 214 214 213 213 213 205 203 206 212 215 217 219 220 219 217 215 213 212 211 207 208
297 301 305 308 309 307 304 301 299 298 288 282 278 272 262 254 249 243 235 228 225 221 216 215 215 216 214 200 198 201 209 215 218 218 216 214 213 210 214 211 208 211 213
295 299 303 307 309 308 304 301 299 295 289 284 282 278 268 256 250 242 236 231 225 222 219 217 216 218 214 198 198 197 208 216 218 216 213 211 210 207 203 202 204 212 217
297 299 301 303 305 307 308 306 301 296 293 291 289 285 275 263 250 241 238 232 224 223 223 218 214 216 214 197 195 191 209 214 216 214 211 208 208 199 187 190 197 204 213
298 301 305 306 306 308 310 306 302 299 294 293 291 287 277 264 254 245 240 234 224 223 222 223 218 216 215 195 188 188 203 208 210 209 207 203 203 193 185 193 195 201 203
302 304 305 305 306 310 308 302 301 299 301 303 299 295 286 272 262 251 241 227 217 217 219 221 221 216 213 195 188 190 201 202 201 203 202 201 191 191 191 195 201 200 191
304 305 304 305 310 313 308 302 303 307 309 306 300 298 295 287 271 254 240 220 208 212 217 215 218 218 210 202 195 195 201 198 199 200 198 194 188 191 192 196 192 179 173
304 305 304 305 307 313 310 303 308 313 311 307 302 299 298 290 269 250 235 217 208 212 217 214 215 212 206 200 192 196 198 194 195 193 183 181 182 186 191 187 179 172 170
304 304 305 304 306 314 314 307 310 313 310 306 303 300 297 296 285 261 235 219 215 214 216 219 218 212 203 198 194 197 195 186 178 169 167 168 169 172 178 177 172 172 173
301 302 302 301 303 311 312 313 312 310 308 305 304 307 305 296 292 279 261 243 236 230 224 221 214 207 211 206 192 187 189 184 177 160 156 163 167 170 167 163 161 161 161
298 299 301 302 305 308 309 313 312 307 303 302 304 306 303 296 291 291 299 292 254 250 246 240 227 223 216 189 185 184 176 167 160 155 165 173 177 176 171 167 165 167 171
Height
1442 1443 1443 1444 1445 1446 1447 1449 1451 1454 1457 1460 1462 1465 1467 1471 1474 1476 1480 1483 1486 1488 1491 1493 1496 1498 1499 1501 1503 1505 1507 1508 1510 1511 1511 1511 1510 1510 1509 1509 1509 1509 1509
1436 1436 1436 1437 1438 1439 1440 1442 1444 1446 1448 1451 1455 1458 1461 1464 1467 1470 1473 1476 1479 1482 1484 1487 1489 1492 1494 1496 1498 1500 1501 1503 1505 1506 1508 1508 1508 1504 1504 1504 1504 1505 1505
1430 1430 1430 1431 1431 1432 1433 1435 1437 1439 1441 1444 1448 1451 1455 1457 1460 1462 1465 1468 1472 1475 1477 1480 1483 1485 1488 1489 1491 1493 1495 1497 1499 1501 1503 1504 1502 1502 1500 1499 1500 1500 1500
1424 1424 1424 1425 1425 1426 1427 1428 1430 1432 1434 1437 1440 1442 1444 1446 1449 1453 1457 1460 1464 1467 1470 1473 1476 1478 1480 1483 1485 1487 1489 1491 1493 1494 1495 1497 1498 1499 1497 1496 1495 1495 1495
1418 1418 1418 1419 1419 1420 1421 1422 1423 1425 1427 1429 1432 1434 1436 1439 1444 1447 1450 1453 1456 1459 1462 1465 1468 1470 1473 1475 1478 1480 1482 1484 1486 1487 1488 1490 1491 1492 1493 1492 1491 1490 1490
1413 1413 1413 1413 1413 1414 1414 1415 1416 1418 1420 1422 1424 1426 1428 1432 1435 1438 1441 1444 1447 1450 1453 1456 1459 1462 1464 1467 1470 1472 1474 1477 1479 1480 1482 1483 1484 1484 1486 1486 1486 1486 1485
1408 1408 1407 1407 1407 1407 1408 1408 1409 1410 1412 1414 1416 1418 1421 1424 1426 1429 1432 1436 1438 1440 1443 1447 1450 1453 1456 1459 1462 1464 1466 1469 1471 1472 1474 1475 1477 1478 1479 1480 1480 1480 1479
1404 1403 1402 1402 1402 1402 1402 1402 1403 1404 1405 1407 1409 1411 1413 1416 1419 1422 1425 1427 1430 1432 1435 1438 1441 1444 1448 1450 1453 1456 1458 1460 1462 1465 1467 1468 1469 1471 1472 1473 1474 1474 1473
1401 1399 1398 1398 1397 1397 1397 1397 1397 1398 1399 1400 1402 1404 1406 1408 1411 1414 1417 1419 1422 1425 1428 1430 1433 1436 1439 1442 1445 1447 1449 1452 1454 1456 1458 1460 1462 1463 1464 1466 1467 1469 1467
1398 1396 1395 1394 1393 1392 1392 1392 1393 1393 1393 1394 1395 1397 1399 1401 1403 1406 1408 1411 1414 1417 1420 1422 1425 1428 1431 1434 1436 1438 1441 1444 1445 1448 1450 1452 1454 1455 1457 1458 1459 1460 1460
1397 1395 1392 1390 1389 1388 1388 1388 1388 1388 1388 1388 1389 1391 1392 1394 1397 1398 1400 1403 1406 1409 1412 1414 1417 1420 1422 1425 1428 1430 1433 1435 1437 1440 1442 1443 1446 1447 1449 1450 1451 1452 1453
1395 1393 1391 1388 1386 1385 1384 1384 1383 1383 1383 1383 1383 1385 1386 1388 1390 1391 1393 1395 1398 1401 1404 1406 1409 1411 1414 1417 1419 1422 1424 1427 1429 1431 1433 1435 1438 1439 1441 1442 1443 1444 1445
1393 1391 1389 1386 1384 1382 1381 1379 1379 1378 1378 1378 1378 1379 1380 1381 1382 1384 1386 1388 1390 1393 1395 1398 1400 1403 1405 1408 1411 1414 1416 1418 1421 1423 1425 1427 1430 1431 1433 1434 1435 1437 1438
1390 1388 1386 1384 1381 1379 1377 1376 1375 1374 1373 1373 1372 1373 1373 1374 1376 1377 1379 1380 1382 1384 1387 1389 1392 1394 1397 1400 1403 1406 1408 1411 1413 1415 1417 1419 1421 1423 1425 1426 1428 1429 1430
1387 1385 1383 1381 1379 1376 1374 1373 1371 1370 1369 1368 1367 1367 1368 1369 1369 1370 1371 1373 1375 1376 1379 1381 1384 1386 1389 1392 1395 1398 1400 1403 1405 1407 1409 1411 1413 1415 1417 1418 1420 1421 1422
1384 1382 1380 1378 1375 1373 1371 1369 1367 1366 1364 1363 1363 1362 1362 1362 1363 1364 1365 1366 1368 1369 1372 1374 1376 1378 1381 1383 1387 1390 1392 1395 1397 1399 1401 1403 1406 1407 1409 1411 1412 1414 1415
1381 1379 1377 1374 1372 1370 1367 1365 1363 1361 1360 1359 1358 1357 1357 1357 1357 1358 1359 1360 1361 1363 1364 1366 1368 1371 1373 1376 1379 1382 1385 1387 1389 1391 1393 1395 1397 1400 1402 1403 1405 1406 1407
1377 1375 1372 1370 1368 1365 1363 1361 1359 1357 1355 1354 1353 1352 1352 1351 1351 1352 1352 1353 1354 1355 1357 1359 1361 1363 1365 1368 1371 1375 1378 1380 1382 1384 1386 1388 1390 1392 1394 1396 1397 1399 1400
1373 1371 1368 1365 1363 1361 1358 1356 1354 1352 1350 1349 1348 1347 1346 1346 1346 1346 1346 1347 1348 1349 1351 1352 1354 1356 1358 1361 1364 1368 1370 1372 1374 1376 1379 1381 1383 1385 1387 1389 1390 1392 1393
1368 1366 1363 1360 1358 1356 1354 1351 1349 1348 1346 1344 1343 1342 1341 1340 1340 1340 1340 1340 1341 1342 1344 1346 1348 1350 1352 1354 1357 1360 1363 1364 1367 1369 1371 1374 1376 1378 1380 1382 1383 1385 1386
1363 1360 1358 1355 1353 1351 1349 1347 1345 1343 1342 1340 1339 1338 1336 1335 1335 1335 1335 1335 1335 1337 1338 1340 1342 1344 1346 1348 1351 1353 1356 1357 1360 1362 1364 1367 1370 1372 1374 1376 1377 1378 1381
1358 1355 1353 1350 1348 1346 1344 1342 1340 1339 1337 1336 1334 1333 1332 1330 1330 1330 1330 1330 1330 1331 1333 1334 1336 1338 1340 1342 1344 1347 1350 1352 1354 1356 1358 1361 1363 1366 1367 1369 1371 1373 1374
1353 1351 1348 1346 1344 1342 1340 1338 1336 1335 1333 1331 1330 1328 1327 1326 1326 1326 1325 1325 1326 1327 1327 1329 1330 1331 1334 1336 1338 1341 1344 1346 1348 1350 1353 1355 1358 1360 1361 1363 1365 1366 1368
1348 1346 1344 1341 1339 1337 1336 1334 1332 1331 1329 1327 1325 1324 1323 1322 1321 1321 1321 1321 1321 1322 1322 1324 1325 1326 1327 1329 1332 1335 1338 1340 1343 1345 1348 1350 1352 1354 1356 1357 1359 1361 1362
1344 1341 1339 1337 1335 1333 1332 1330 1328 1327 1325 1323 1322 1320 1319 1318 1317 1316 1316 1316 1316 1317 1318 1319 1320 1321 1322 1324 1326 1329 1331 1333 1336 1339 1341 1344 1346 1348 1350 1352 1353 1356 1357
1338 1336 1335 1333 1331 1329 1327 1326 1324 1323 1321 1319 1317 1316 1315 1314 1313 1312 1312 1312 1313 1313 1314 1315 1317 1318 1319 1321 1322 1325 1327 1329 1332 1334 1336 1338 1340 1342 1344 1346 1348 1351 1353